STARLINK-36752, 67724

Orbit data source: Space-Track

STARLINK-36752, 67724 is a payload satellite owned by SpaceX/Seattle (US) in SSO that was launched on Wed, 11 Feb 2026 UTC via an FALCON 9 launch vehicle from the Air Force Western Test Range (AFWTR). Payload-class satellites include a variety of spacecraft equipped with specific instruments for various scientific and technological missions. These include communications satellites like Starlink; space stations such as the ISS; scientific satellites like the Hubble; Earth observation satellites from companies like Planet Labs, Umbra, and HawkEye 360; GPS; miniature CubeSats for education and research; and military/defense satellites.

Loading next visibility...
Identifier
67724, 2026-026D
Orbit
SSO
Country
Flag of USUS
Related business
Manufacturer
SpaceX/Seattle
Mission
Operational Commercial Communications
Bus & Motor
STARLINK V2MO, Unknown motor
Mass
575 kg wet, ~530 kg dry
Launch date (UTC)
2026-02-11 (3 months ago)
Launch vehicle
FALCON 9
Launch site
Air Force Western Test Range (AFWTR)
Object type
Payload
Rocket body
Debris
Shape & HBR
Box + 2 Pan, 17.7 m
Radar Cross Section
36.964 m²

Expand to show TLE details & history
Last TLE update: 9 hours ago

TLE from 9 hours ago
0 STARLINK-36752
1 67724U 26026D   26130.16142205  .00009659  00000-0  30100-3 0  9991
2 67724  97.2840 183.8502 0001058  94.7697 265.3667 15.33459312 13545
Epoch: 2026-05-10T03:52Z
TLE epoch observation values (Epoch: 2026-05-10T03:52:26.865Z)
Latitude
0.00004°
Longitude
-102.23022°
Altitude
468.671 km
Speed
7.632 km/s
True Right ascension
12h 15m 24s
True Declination
0° 00' 00"
Sunlit
Object was in full shadow at epoch
Visualization orbit readout
Latitude
Unknown
Longitude
Unknown
Altitude
Unknown
Speed
Unknown
Apparent Right ascension
Unknown
Apparent Declination
Unknown
Sunlit
N/A
Visualization observer readout
Local Sidereal Time
20:35:56
Azimuth
Unknown
Elevation
Unknown
Doppler factor
Unknown
Orbital elements
Apogee altitude
463.167 km
Perigee altitude
461.72 km
Semi-major axis
6,840.58 km
Eccentricity
0.00011
Inclination
97.284°
RAAN
183.8502°
Arg. of periapsis
94.7697°
True anomaly
265.35462°
Mean anomaly
265.3667°
Eccentric anomaly
265.36066°
Mean motion
3.83622 °/min
Orbital period
93.84 mins
BSTAR
0.000301
Loading maneuver chart data...
Computing Atmospheric mass density...
Loading historical data...
Loading historical data...
Loading historical data...
Loading historical data...
Loading historical data...
Loading historical data...
Loading historical data...

Documentation

Showing up to 5 results
|